Voltar ao catálogo

STARLINK-37114

AtivoComunicaçõesVLEO
NORAD 68561·PAYLOAD·🇺🇸 United States

Lançado Apr 2, 2026 de Cape Canaveral Space Force Station

Loading…

Próximas Passagens (próximas 24 horas)

TLE

AtualizadoSource: CelesTrak SupGP

Época: Sep 15, 2026, 03:58 UTC

1 68561C 26070V   26258.16576389  .00009415  00000+0  27803-3 0  2588
2 68561  53.1581 198.4502 0001253  77.5125 195.7213 15.34399700    18

Acompanhe STARLINK-37114 em tempo real com AllMySat

Download on the App Store